Location: Lecco
(45.8566°N, 9.3977°E)
Time: 19:26:20
(UTC+02:00)

Altair - Visible Passes

Search period start: 17 May 2021 00:00
Search period end: 27 May 2021 00:00
Orbit: 1501 x 1683 km, 47.2° (Epoch: 16 May)

Date Brightness Start Highest point End Pass type
(mag) Time Alt. Az. Time Alt. Az. Time Alt. Az.
17 May 7.6 01:53:31 10° W 02:03:46 85° N 02:13:52 10° E visible
17 May 7.6 03:58:48 10° WNW 04:09:01 88° SSW 04:18:56 10° ESE visible
17 May 8.5 21:23:34 10° S 21:30:30 21° SE 21:37:28 10° E visible
17 May 7.6 23:23:57 10° SW 23:33:47 59° SSE 23:43:39 10° ENE visible
18 May 7.6 01:28:16 10° W 01:38:31 86° N 01:48:38 10° E visible
18 May 7.6 03:33:33 10° WNW 03:43:47 90° SW 03:53:44 10° ESE visible
18 May 7.7 22:58:53 10° SW 23:08:38 56° SE 23:18:25 10° ENE visible
19 May 7.6 01:03:01 10° WSW 01:13:16 88° NNW 01:23:25 10° E visible
19 May 7.6 03:08:18 10° WNW 03:18:33 88° N 03:28:33 10° ESE visible
19 May 7.7 22:33:50 10° SW 22:43:28 53° SE 22:53:10 10° ENE visible
20 May 7.6 00:37:47 10° WSW 00:48:01 89° NNW 00:58:11 10° ENE visible
20 May 7.6 02:43:03 10° W 02:53:18 87° N 03:03:20 10° ESE visible
20 May 7.7 04:48:09 10° WNW 04:57:57 57° SW 05:07:26 10° SE visible
20 May 7.8 22:08:49 10° SSW 22:18:20 49° SE 22:27:56 10° ENE visible
21 May 7.6 00:12:34 10° WSW 00:22:47 89° SSE 00:32:58 10° ENE visible
21 May 7.6 02:17:47 10° W 02:28:04 86° N 02:38:07 10° E visible
21 May 7.6 04:22:53 10° WNW 04:32:48 61° SSW 04:42:23 10° SE visible
21 May 7.9 21:43:49 10° SSW 21:53:11 46° SE 22:02:41 10° ENE visible
21 May 7.6 23:47:21 10° WSW 23:57:32 87° SSE 00:07:44 10° ENE visible
22 May 7.6 01:52:32 10° W 02:02:49 85° N 02:12:54 10° E visible
22 May 7.6 03:57:39 10° WNW 04:07:37 64° SSW 04:17:19 10° SE visible
22 May 7.9 21:18:51 10° SSW 21:28:04 43° SE 21:37:24 10° ENE visible
22 May 7.6 23:22:08 10° WSW 23:32:18 85° SSE 23:42:31 10° ENE visible
23 May 7.7 01:27:17 10° W 01:37:33 84° N 01:47:40 10° E visible
23 May 7.6 03:32:24 10° WNW 03:42:26 67° SSW 03:52:14 10° SE visible
23 May 7.6 22:56:57 10° WSW 23:07:04 82° SSE 23:17:17 10° ENE visible
24 May 7.7 01:02:01 10° W 01:12:17 83° N 01:22:26 10° E visible
24 May 7.5 03:07:09 10° WNW 03:17:15 70° SSW 03:27:07 10° SE visible
24 May 7.6 22:31:46 10° WSW 22:41:51 80° SSE 22:52:03 10° ENE visible
25 May 7.7 00:36:46 10° W 00:47:01 83° N 00:57:12 10° E visible
25 May 7.5 02:41:55 10° WNW 02:52:04 73° SSW 03:01:59 10° SE visible
25 May 8.2 04:47:23 10° WNW 04:55:49 32° SW 05:04:04 10° S visible
25 May 7.6 22:06:36 10° WSW 22:16:38 77° SSE 22:26:49 10° ENE visible
26 May 7.7 00:11:32 10° W 00:21:45 83° N 00:31:57 10° E visible
26 May 7.5 02:16:42 10° WNW 02:26:52 76° SSW 02:36:51 10° ESE visible
26 May 8.1 04:22:02 10° WNW 04:30:44 34° SW 04:39:15 10° SSE visible
26 May 7.6 21:41:28 10° WSW 21:51:26 74° SSE 22:01:35 10° ENE visible
